Weather Service Report


704 
ASUS46 KSTO 210009
RWRCA 

NORTHERN AND CENTRAL CA REGIONAL WEATHER ROUNDUP
NATIONAL WEATHER SERVICE SACRAMENTO CA 
500 PM PDT WED AUG 20 2014

NOTE: FAIR INDICATES FEW OR NO CLOUDS BELOW 12,000 FEET WITH NO
SIGNIFICANT WEATHER AND/OR OBSTRUCTIONS TO VISIBILITY.

CAZ001-003-210100-
NORTHWEST AREA
  
CITY           SKY/WX    TMP DP  RH WIND       PRES   REMARKS
CRESCENT CITY  SUNNY     63  56  78 NW10      29.91F                  
ARCATA         NOT AVBL                                               
SHELTER COVE   NOT AVBL                                               
UKIAH          SUNNY     81  57  43 S12       29.83F                  
$$

CAZ006-505>513-210100-
BAY AREA
  
CITY           SKY/WX    TMP DP  RH WIND       PRES   REMARKS
SANTA ROSA     CLOUDY    66  56  70 SW8       29.90S                  
SAN RAFAEL     N/A       70  MM  MM MISG
NAPA           SUNNY     70  58  65 S18       29.88F                  
CONCORD        SUNNY     68  57  68 W16       29.89S                  
OAKLAND CITY   N/A       68  MM  MM MISG
OAKLAND        MOSUNNY   71  56  58 W14       29.90S                  
SAN FRAN CITY  N/A       66  MM  72 MISG
SAN FRAN ARPT  MOSUNNY   72  58  61 S10G20    29.89F                  
LIVERMORE      SUNNY     75  57  53 NW22      29.85F                  
HAYWARD        SUNNY     74  58  57 W14       29.89F                  
REDWOOD CITY   N/A       MM  MM  MM MISG
MOFFETT ARPT   SUNNY     77  58  51 N16       29.87F                  
SAN JOSE ARPT  MOSUNNY   78  58  49 NW9       29.86F                  
$$
CAZ034-037-514>518-210100-
CENTRAL COAST
  
CITY           SKY/WX    TMP DP  RH WIND       PRES   REMARKS
WATSONVILLE    SUNNY     71  56  58 SW13      29.94S                  
SALINAS        SUNNY     69  55  60 W15       29.92S                  
MONTEREY       SUNNY     67  55  65 SW10G23   29.94R                  
PT PIEDRAS BLS NOT AVBL                                               
SAN LUIS OBISP SUNNY     74  56  53 NW12      29.90F                  
SANTA MARIA    SUNNY     74  56  53 NW13      29.92S                  
$$
CAZ015-016-210100-
NORTHERN SACRAMENTO VALLEY
  
CITY           SKY/WX    TMP DP  RH WIND       PRES   REMARKS
REDDING        SUNNY     90  51  26 S18       29.76F                  
RED BLUFF      SUNNY     87  57  35 S18       29.79F                  
OROVILLE       SUNNY     85  53  33 S16       29.83S                  
$$
CAZ016>018-210100-
SOUTHERN SACRAMENTO VALLEY
  
CITY           SKY/WX    TMP DP  RH WIND       PRES   REMARKS
AUBURN         SUNNY     79  54  41 S7        29.89F                  
BEALE AFB      SUNNY     82  57  42 S13       29.82F                  
LINCOLN        FAIR      82  50  32 S13G21    29.82F                  
MARYSVILLE     SUNNY     82  55  39 S15       29.82F                  
SAC INTL ARPT  SUNNY     80  56  43 S13       29.81F                  
MATHER AIRPORT SUNNY     79  55  44 SW14      29.85F                  
DOWNTOWN SAC   N/A       78  MM  MM MISG
SAC EXEC ARPT  SUNNY     77  57  50 SW18      29.84F                  
VACAVILLE      SUNNY     77  55  46 SW17G23   29.84F                  
TRAVIS AFB     SUNNY     74  59  59 SW23G31   29.83F                  
$$
CAZ019>021-210100-
SAN JOAQUIN VALLEY
  
CITY           SKY/WX    TMP DP  RH WIND       PRES   REMARKS
STOCKTON       SUNNY     82  58  43 NW12G21   29.84S                  
MODESTO        SUNNY     86  56  35 N5        29.82F                  
MERCED         SUNNY     89  52  28 W9        29.82F                  
LEMOORE        SUNNY     93  51  23 N7        29.81S HX  90           
FRESNO         MOSUNNY   93  48  21 NW9       29.82F                  
HANFORD        SUNNY     92  49  22 N9        29.81F                  
PORTERVILLE    SUNNY     91  54  27 NW10      29.83S                  
BAKERSFIELD    SUNNY     92  49  22 N16       29.80S                  
$$
CAZ011-012-071-210100-
NORTHERN MOUNTAINS
  
CITY           SKY/WX    TMP DP  RH WIND       PRES   REMARKS
YREKA          SUNNY     85  52  32 N17G26    29.87R                  
MOUNT SHASTA   PTSUNNY   80  53  39 CALM      29.89S                  
ALTURAS        PTSUNNY   84  40  21 W9G17     29.91F                  
$$
CAZ011-012-071-210100-
SIERRA NEVADA MTNS
  
CITY           SKY/WX    TMP DP  RH WIND       PRES   REMARKS
BLUE CANYON    SUNNY     70  39  32 S10       30.08F                  
TRUCKEE        MOSUNNY   75  37  25 W14G21    30.07R                  
TAHOE VLY ARPT SUNNY     76  41  28 S21G32    30.08R                  
MAMMOTH LAKES  FAIR      77  37  24 W21G28    30.10S                  
$$
  

Return to Home page


Western Regional Climate Center, wrcc@dri.edu